Home   Weather   Rotterdam   Past weeks

Flag for Netherlands Past Weather in Rotterdam, Netherlands — Yesterday and Last 2 Weeks

46 °F


Feels Like: 44 °F
Forecast: 47 / 51 °F
Wind: 6 mph from Northeast

Location: Rotterdam Zestienhoven Airport

Current Time: Oct 24, 2016 at 11:58:00 PM

Latest Report: Oct 24, 2016 at 10:55 PM

Visibility: 3 mi

Pressure: 29.98 "Hg

Humidity: 93%

Dew Point: 45 °F

Location of RotterdamLocation

Past Weather in Rotterdam — Graph


Rotterdam Temperature Yesterday

Maximum temperature yesterday: 52 °F (at 1:55 PM)
Minimum temperature yesterday: 30 °F (at 4:55 AM)
Average temperature yesterday: 41 °F

High & Low Weather Summary for the Past Weeks

High68 °F (Oct 16, 3:25 PM)100% (Oct 9, 10:25 PM)30.27 "Hg (Oct 9, 10:25 PM)
Low30 °F (Oct 23, 4:55 AM)56% (Oct 16, 3:55 PM)29.65 "Hg (Oct 15, 12:55 AM)
Average49 °F86%30.00 "Hg
* Reported Oct 9 10:25 PM — Oct 24 10:25 PM, Rotterdam, Weather by CustomWeather, © 2016

Note: Actual official high and low records may vary slightly from our data, if they occured in-between our weather recording intervals... More about our weather records


Rotterdam Weather History for the Previous 24 Hours

Scroll right to see more
Time TempWeatherWind HumidityBarometerVisibility
10:25 PM
Mon, Oct 24
46 °FFog.3 mph93%29.98 "Hg3 mi
9:55 PM46 °FFog.3 mph93%29.98 "Hg3 mi
9:25 PM46 °FOvercast.3 mph93%29.98 "Hg4 mi
8:55 PM46 °FOvercast.3 mph93%29.95 "Hg4 mi
8:25 PM46 °FOvercast.6 mph93%29.95 "Hg4 mi
7:55 PM46 °FOvercast.8 mph93%29.95 "Hg4 mi
7:25 PM46 °FOvercast.7 mph93%29.95 "Hg4 mi
6:55 PM48 °FOvercast.9 mph87%29.95 "Hg4 mi
6:25 PM48 °FOvercast.9 mph87%29.92 "Hg5 mi
5:55 PM48 °FOvercast.9 mph87%29.92 "Hg5 mi
5:25 PM48 °FMostly cloudy.8 mph87%29.92 "Hg5 mi
4:55 PM48 °FClear.9 mph87%29.92 "Hg6 mi
4:25 PM50 °FPassing clouds.10 mph82%29.92 "Hg6 mi
3:55 PM50 °FPassing clouds.9 mph82%29.89 "Hg6 mi
3:25 PM50 °FClear.9 mph82%29.89 "HgN/A
2:55 PM50 °FClear.9 mph82%29.89 "HgN/A
2:25 PM50 °FClear.10 mph82%29.89 "HgN/A
1:55 PM50 °FClear.9 mph82%29.89 "HgN/A
1:25 PM50 °FClear.10 mph82%29.89 "HgN/A
12:55 PM48 °FClear.9 mph87%29.89 "HgN/A
12:25 PM48 °FClear.10 mph87%29.89 "HgN/A
11:55 AM46 °FClear.8 mph87%29.92 "Hg6 mi
11:25 AM46 °FClear.8 mph87%29.92 "Hg6 mi
10:55 AM46 °FClear.10 mph87%29.92 "Hg6 mi
10:25 AM46 °FClear.10 mph87%29.92 "Hg6 mi
9:55 AM45 °FClear.10 mph93%29.89 "Hg6 mi
9:25 AM45 °FClear.9 mph87%29.89 "Hg6 mi
8:55 AM45 °FClear.8 mph87%29.89 "Hg5 mi
8:25 AM43 °FClear.8 mph93%29.89 "Hg5 mi
7:55 AM43 °FClear.7 mph93%29.89 "Hg4 mi
7:25 AM43 °FClear.8 mph93%29.89 "Hg4 mi
6:55 AM43 °FClear.6 mph93%29.92 "Hg4 mi
6:25 AM43 °FFog.6 mph93%29.89 "Hg3 mi
5:55 AM41 °FFog.5 mph100%29.92 "Hg3 mi
5:25 AM41 °FFog.3 mph100%29.92 "Hg3 mi
4:55 AM41 °FFog.6 mph100%29.89 "Hg3 mi
4:25 AM41 °FClear.7 mph93%29.89 "Hg4 mi
3:55 AM41 °FClear.8 mph93%29.89 "Hg4 mi
3:25 AM41 °FClear.3 mph93%29.92 "Hg4 mi
2:55 AM41 °FClear.2 mph93%29.92 "Hg4 mi
2:25 AM41 °FClear.6 mph93%29.89 "Hg4 mi
1:55 AM41 °FClear.3 mph93%29.89 "Hg4 mi
1:25 AM41 °FClear.6 mph93%29.89 "Hg4 mi
12:55 AM41 °FClear.5 mph93%29.89 "Hg4 mi
12:25 AM39 °FFog.5 mph100%29.89 "Hg3 mi
11:55 PM
Sun, Oct 23
41 °FFog.6 mph93%29.89 "Hg2 mi
11:25 PM39 °FFog.5 mph93%29.89 "Hg2 mi
Weather by CustomWeather, © 2016

See weather overviewHow to use our weather pages